This is the latest recevied weather packets stored in our database for station/object W4MLN-1. If no packets are shown the sender has not sent any weather packets the latest 10 day(s).
| Time | Temp. | Humidity | Pressure | Rain* | Wind** | Luminosity | Snow |
|---|---|---|---|---|---|---|---|
| 1777816278 | 6.11° C | 46% | 1018.7 hPa | 0 mm | - | 588 W/m² | - |
| 1777815978 | 6.11° C | 48% | 1018.7 hPa | 0 mm | - | 562 W/m² | - |
| 1777815677 | 6.11° C | 51% | 1018.7 hPa | 0 mm | - | 538 W/m² | - |
| 1777815375 | 6.11° C | 52% | 1018.6 hPa | 0 mm | - | 517 W/m² | - |
| 1777815072 | 5.56° C | 52% | 1018.7 hPa | 0 mm | - | 501 W/m² | - |
| 1777814772 | 5.56° C | 51% | 1018.6 hPa | 0 mm | - | 385 W/m² | - |
| 1777814472 | 5.56° C | 55% | 1018.6 hPa | 0 mm | - | 173 W/m² | - |
| 1777814172 | 5° C | 54% | 1018.6 hPa | 0 mm | - | 150 W/m² | - |
| 1777813872 | 5° C | 57% | 1018.6 hPa | 0 mm | - | 90 W/m² | - |
| 1777813572 | 5° C | 59% | 1018.5 hPa | 0 mm | - | 130 W/m² | - |
| 1777813272 | 4.44° C | 60% | 1018.5 hPa | 0 mm | - | 89 W/m² | - |
| 1777812972 | 4.44° C | 62% | 1018.6 hPa | 0 mm | - | 169 W/m² | - |
| 1777812673 | 4.44° C | 63% | 1018.6 hPa | 0 mm | - | 84 W/m² | - |
| 1777812372 | 4.44° C | 64% | 1018.6 hPa | 0 mm | - | 106 W/m² | - |
| 1777812072 | 3.89° C | 65% | 1018.5 hPa | 0 mm | - | 77 W/m² | - |
| 1777811766 | 3.89° C | 69% | 1018.5 hPa | 0 mm | - | 76 W/m² | - |
| 1777811467 | 3.33° C | 69% | 1018.4 hPa | 0 mm | - | 54 W/m² | - |
| 1777811161 | 3.33° C | 71% | 1018.3 hPa | 0 mm | - | 49 W/m² | - |
| 1777810857 | 3.33° C | 74% | 1018.4 hPa | 0 mm | - | 47 W/m² | - |
| 1777810558 | 2.78° C | 78% | 1018.3 hPa | 0 mm | - | 47 W/m² | - |
| 1777810258 | 2.78° C | 79% | 1018.2 hPa | 0 mm | - | 47 W/m² | - |
| 1777809958 | 2.22° C | 81% | 1018.2 hPa | 0 mm | - | 44 W/m² | - |
| 1777809658 | 1.67° C | 85% | 1018 hPa | 0 mm | - | 44 W/m² | - |
| 1777809358 | 0.56° C | 91% | 1018 hPa | 0 mm | - | 42 W/m² | - |
| 1777809059 | 0° C | 96% | 1017.9 hPa | 0 mm | - | 40 W/m² | - |
* Rain latest hour (hover to see other rain measurements)
** Current wind speed in m/s (hover to see current wind gust speed)